This is the latest recevied weather packets stored in our database for station/object W8AN. If no packets are shown the sender has not sent any weather packets the latest 10 day(s).
| Time | Temp. | Humidity | Pressure | Rain* | Wind** | Luminosity | Snow |
|---|---|---|---|---|---|---|---|
| 1778131002 | 8.33° C | 74% | 4268 hPa | 0 mm | - | 0 W/m² | - |
| 1778130699 | 8.33° C | 74% | 4268.3 hPa | 0 mm | - | 0 W/m² | - |
| 1778130396 | 8.33° C | 74% | 4268.3 hPa | 0 mm | - | 0 W/m² | - |
| 1778130093 | 8.33° C | 73% | 4268 hPa | 0 mm | - | 0 W/m² | - |
| 1778129789 | 8.33° C | 74% | 4268.2 hPa | 0 mm | - | 0 W/m² | - |
| 1778129486 | 8.33° C | 74% | 4268.1 hPa | 0 mm | - | 0 W/m² | - |
| 1778129183 | 8.33° C | 72% | 4268.1 hPa | 0 mm | - | 0 W/m² | - |
| 1778128880 | 8.33° C | 72% | 4268.2 hPa | 0 mm | - | 0 W/m² | - |
| 1778128575 | 8.33° C | 72% | 4268.2 hPa | 0 mm | - | 0 W/m² | - |
| 1778128273 | 8.33° C | 72% | 4268.4 hPa | 0 mm | - | 0 W/m² | - |
| 1778127969 | 8.33° C | 74% | 4268.3 hPa | 0 mm | - | 0 W/m² | - |
| 1778127664 | 8.33° C | 73% | 4268.3 hPa | 0 mm | - | 0 W/m² | - |
| 1778127361 | 8.89° C | 72% | 4268.3 hPa | 0 mm | - | 0 W/m² | - |
| 1778127058 | 8.89° C | 71% | 4268.3 hPa | 0 mm | - | 0 W/m² | - |
| 1778126755 | 8.89° C | 71% | 4268.6 hPa | 0 mm | - | 0 W/m² | - |
| 1778126452 | 8.89° C | 70% | 4268.4 hPa | 0 mm | - | 0 W/m² | - |
| 1778126147 | 8.89° C | 70% | 4268.5 hPa | 0 mm | - | 0 W/m² | - |
| 1778125844 | 8.89° C | 69% | 4268.3 hPa | 0 mm | - | 0 W/m² | - |
| 1778125540 | 8.89° C | 67% | 4268.4 hPa | 0 mm | - | 0 W/m² | - |
| 1778125238 | 8.89° C | 67% | 4268.4 hPa | 0 mm | - | 0 W/m² | - |
| 1778124936 | 8.89° C | 68% | 4268.3 hPa | 0 mm | - | 0 W/m² | - |
| 1778124633 | 9.44° C | 67% | 4268.5 hPa | 0 mm | - | 0 W/m² | - |
| 1778124330 | 9.44° C | 66% | 4268.5 hPa | 0 mm | - | 0 W/m² | - |
| 1778124026 | 9.44° C | 65% | 4268.5 hPa | 0 mm | - | 0 W/m² | - |
| 1778123722 | 9.44° C | 68% | 4268.7 hPa | 0 mm | - | 0 W/m² | - |
* Rain latest hour (hover to see other rain measurements)
** Current wind speed in m/s (hover to see current wind gust speed)